This demonstration page uses our WeatherBlox Daily Observations layout. Learn more.

Hourly Observations for October 5, 2018

Temp ( °F °C ) Dew Point ( °F °C ) Humidity (%) Winds ( mph kmh ) Pressure ( in mb ) Visibility ( mi km ) Precip ( " mm )
12:15 am 00:15 Clear 37 2.8 37 2.8 100 100 Calm 30.06 1018 7 11.265408 0 0
12:35 am 00:35 Clear 37 2.8 37 2.8 100 100 SSW 3 6 30.06 1018 10 16.09344 0 0
12:55 am 00:55 Partly Cloudy 37 2.5 37 2.5 100 100 SSW 5 7 30.09 1019 7 11.265408 0 0
1:15 am 01:15 Cloudy 37 3 37 3 100 100 S 6 9 30.03 1017 10 16.09344 0 0
1:35 am 01:35 Cloudy 38 3.2 38 3.2 100 100 Calm 30.03 1017 10 16.09344 0 0
1:55 am 01:55 Partly Cloudy 37 3 37 3 100 100 SSW 5 7 30.03 1017 10 16.09344 0 0
2:15 am 02:15 Mostly Cloudy 37 3 37 3 100 100 SW 5 7 30.03 1017 7 11.265408 0 0
2:35 am 02:35 Cloudy with Mist and Fog 38 3.6 38 3.6 100 100 SSW 7 11 30 1016 4 6.437376 0 0
2:55 am 02:55 Cloudy with Mist and Fog 39 3.7 39 3.7 100 100 SW 3 6 30 1016 1.5 2.414016 0 0
3:15 am 03:15 Cloudy with Mist and Fog 39 3.7 39 3.7 100 100 WSW 5 7 30 1016 4 6.437376 0 0
3:35 am 03:35 Cloudy with Mist and Fog 38 3.5 38 3.5 100 100 SW 5 7 30 1016 1.5 2.414016 0 0
3:55 am 03:55 Cloudy with Mist and Fog 38 3.3 38 3.3 100 100 SW 5 7 30 1016 0.75 1.207008 0 0
4:15 am 04:15 Cloudy with Mist and Fog 38 3.2 38 3.2 100 100 SW 3 6 29.97 1015 0.75 1.207008 0 0
4:35 am 04:35 Cloudy with Mist and Fog 38 3.2 38 3.2 100 100 SW 5 7 29.97 1015 1 1.609344 0 0
4:55 am 04:55 Cloudy with Mist and Fog 37 3 37 3 100 100 SW 5 7 29.97 1015 2 3.218688 0 0
5:15 am 05:15 Mostly Cloudy with Mist and Fog 37 3 37 3 100 100 SSW 3 6 29.97 1015 5 8.04672 0 0
5:35 am 05:35 Mostly Cloudy with Mist and Fog 37 3 37 3 100 100 Calm 29.97 1015 5 8.04672 0 0
5:55 am 05:55 Cloudy with Mist and Fog 38 3.5 38 3.5 100 100 SW 5 7 29.97 1015 2.5 4.02336 0 0
6:15 am 06:15 Cloudy with Mist and Fog 39 4 39 4 100 100 SSW 7 11 29.97 1015 4 6.437376 0 0
6:35 am 06:35 Cloudy with Mist and Fog 40 4.3 40 4.3 100 100 SW 7 11 29.97 1015 3 4.828032 0 0
6:55 am 06:55 Cloudy with Mist and Fog 40 4.2 40 4.2 100 100 SW 10 17 29.97 1015 2 3.218688 0 0
7:15 am 07:15 Cloudy with Mist and Fog 40 4.2 40 4.2 100 100 SSW 7 11 29.97 1015 2 3.218688 0 0
7:35 am 07:35 Cloudy with Mist and Fog 39 4.1 39 4.1 100 100 WSW 7 11 29.97 1015 1.5 2.414016 0 0
7:55 am 07:55 Cloudy with Mist and Fog 39 4.1 39 4.1 100 100 SW 8 13 29.97 1015 2 3.218688 0 0
8:15 am 08:15 Cloudy with Mist and Fog 40 4.3 40 4.3 100 100 WSW 7 11 29.97 1015 1 1.609344 0 0
8:35 am 08:35 Cloudy with Mist and Fog 40 4.4 40 4.4 100 100 WSW 5 7 29.94 1014 1.5 2.414016 0 0
8:55 am 08:55 Cloudy with Mist and Fog 40 4.6 40 4.6 100 100 SSW 8 13 29.97 1015 4 6.437376 0 0
9:15 am 09:15 Cloudy with Mist and Fog 41 5.1 41 5.1 100 100 SW 5 7 29.94 1014 5 8.04672 0 0
9:35 am 09:35 Partly Cloudy 42 5.8 42 5.8 100 100 WSW 5 7 29.94 1014 7 11.265408 0 0
9:55 am 09:55 Mostly Cloudy 43 6 43 6 100 100 SW 3 6 29.94 1014 10 16.09344 0 0
10:15 am 10:15 Cloudy 43 6.1 43 6.1 100 100 SW 6 9 29.94 1014 7 11.265408 0 0
10:35 am 10:35 Cloudy 43 6.3 43 6.3 100 100 SW 7 11 29.94 1014 10 16.09344 0 0
10:55 am 10:55 Cloudy 44 6.6 44 6.6 100 100 SW 3 6 29.91 1013 7 11.265408 0 0
11:15 am 11:15 Cloudy 44 6.9 44 6.9 100 100 SSW 3 6 29.91 1013 10 16.09344 0 0
11:35 am 11:35 Cloudy 45 7.2 45 7 99 99 SSE 5 7 29.91 1013 7 11.265408 0 0
11:55 am 11:55 Cloudy with Mist and Fog 45 7.4 45 7.2 99 99 S 5 7 29.91 1013 4 6.437376 0 0
12:15 pm 12:15 Cloudy with Mist and Fog 46 7.6 46 7.6 100 100 S 5 7 29.91 1013 2 3.218688 0 0
12:35 pm 12:35 Cloudy with Mist and Fog 46 8 46 8 100 100 S 7 11 29.85 1011 2 3.218688 0 0
12:55 pm 12:55 Cloudy with Mist and Fog 47 8.3 47 8.2 99 99 S 7 11 29.85 1011 4 6.437376 0 0
1:15 pm 13:15 Cloudy with Mist and Fog 48 8.8 47 8.5 98 98 Calm 29.85 1011 5 8.04672 0 0
1:35 pm 13:35 Cloudy with Mist and Fog 49 9.2 48 9 99 99 Calm 29.83 1010 5 8.04672 0 0
1:55 pm 13:55 Cloudy 49 9.5 48 9 97 97 Calm 29.83 1010 7 11.265408 0 0
2:15 pm 14:15 Cloudy 49 9.7 49 9.2 97 97 Calm 29.83 1010 7 11.265408 0 0
2:35 pm 14:35 Cloudy 50 10.2 49 9.4 95 95 Calm 29.83 1010 7 11.265408 0 0
2:55 pm 14:55 Cloudy 51 10.3 49 9.5 95 95 N 3 6 29.83 1010 7 11.265408 0 0
3:15 pm 15:15 Cloudy 51 10.8 49 9.7 93 93 NNW 3 6 29.8 1009 10 16.09344 0 0
3:35 pm 15:35 Cloudy 51 10.7 49 9.5 92 92 N 5 7 29.85 1011 10 16.09344 0 0
3:55 pm 15:55 Cloudy 51 10.6 49 9.6 94 94 N 5 7 29.85 1011 10 16.09344 0 0
4:15 pm 16:15 Cloudy 51 10.6 49 9.5 93 93 N 3 6 29.85 1011 10 16.09344 0 0
4:35 pm 16:35 Cloudy 51 10.4 49 9.5 94 94 NNW 5 7 29.85 1011 10 16.09344 0 0
4:55 pm 16:55 Cloudy 51 10.5 49 9.6 94 94 N 6 9 29.88 1012 10 16.09344 0 0
5:15 pm 17:15 Cloudy 51 10.8 49 9.7 93 93 N 3 6 29.88 1012 10 16.09344 0 0
5:35 pm 17:35 Cloudy 52 11 49 9.6 91 91 Calm 29.91 1013 10 16.09344 0 0
5:55 pm 17:55 Cloudy 52 11.1 50 9.8 92 92 SE 3 6 29.91 1013 10 16.09344 0 0
6:15 pm 18:15 Cloudy 52 11.3 50 10.2 93 93 Calm 29.91 1013 10 16.09344 0 0
6:35 pm 18:35 Cloudy 52 11.3 50 10.2 93 93 N 5 7 29.94 1014 10 16.09344 0 0
6:55 pm 18:55 Cloudy 52 11.2 50 10.1 93 93 N 6 9 29.94 1014 10 16.09344 0 0
7:15 pm 19:15 Cloudy 52 11.2 50 10.1 93 93 N 7 11 29.94 1014 10 16.09344 0 0
7:35 pm 19:35 Cloudy 52 11.2 50 9.9 92 92 N 15 24 29.97 1015 10 16.09344 0 0
7:55 pm 19:55 Cloudy 51 10.6 45 7.4 81 81 N 22 35 29.97 1015 10 16.09344 0 0
8:15 pm 20:15 Cloudy 49 9.6 44 6.7 82 82 N 25 41 29.97 1015 10 16.09344 0 0
8:35 pm 20:35 Cloudy 47 8.6 43 5.9 83 83 N 25 41 30 1016 10 16.09344 0 0
8:55 pm 20:55 Cloudy 47 8.2 42 5.6 84 84 N 21 33 30 1016 10 16.09344 0 0
9:15 pm 21:15 Cloudy 46 8 41 5.2 83 83 NNE 20 31 30.03 1017 10 16.09344 0 0
9:35 pm 21:35 Cloudy 45 7.3 41 4.9 85 85 NNE 21 33 30.06 1018 10 16.09344 0 0
9:55 pm 21:55 Cloudy 45 7.1 41 4.8 85 85 NNE 21 33 30.06 1018 10 16.09344 0 0
10:15 pm 22:15 Cloudy 44 6.9 40 4.7 86 86 NNE 15 24 30.09 1019 10 16.09344 0 0
10:35 pm 22:35 Partly Cloudy 43 6 40 4.4 90 90 NNE 14 22 30.12 1020 10 16.09344 0 0
10:55 pm 22:55 Clear 42 5.7 40 4.4 91 91 NNE 12 19 30.12 1020 10 16.09344 0 0
11:15 pm 23:15 Clear 42 5.3 40 4.2 93 93 N 9 15 30.15 1021 10 16.09344 0 0
11:35 pm 23:35 Clear 41 5 40 4.2 95 95 N 9 15 30.15 1021 10 16.09344 0 0
11:55 pm 23:55 Partly Cloudy 40 4.5 39 4 97 97 N 7 11 30.15 1021 10 16.09344 0 0

Powered by AerisWeather